Location: Date Creek
(34.2167°N, 113.0301°W)
Time: 10:36:31
(UTC-07:00)

ISS - Visible Passes

Search period start: 23 June 2018 00:00
Search period end: 03 July 2018 00:00
Orbit: 403 x 408 km, 51.6° (Epoch: 24 June)

Date Brightness Start Highest point End Pass type
(mag) Time Alt. Az. Time Alt. Az. Time Alt. Az.
27 Jun -1.0 04:51:15 10° SSE 04:52:25 11° SE 04:53:33 10° ESE visible
29 Jun -2.4 04:41:29 10° SSW 04:44:25 31° SE 04:47:22 10° ENE visible
30 Jun -1.4 03:51:02 12° SSE 03:52:27 15° SE 03:54:27 10° E visible
01 Jul -3.8 04:33:47 14° SW 04:36:31 83° NW 04:39:49 10° NE visible
02 Jul -3.1 03:43:46 37° SSE 03:44:25 42° SE 03:47:33 10° ENE visible
